Location: Prague
(50.0830°N, 14.4670°E)
Time: 19:58:24
(UTC+02:00)

ISS - Pass Details

Date: 28 September 2021
Orbit: 417 x 423 km, 51.6° (Epoch: 25 October)

Event Time Altitude Azimuth Distance (km) Brightness Sun altitude
Rises 21:01:03 0° 287° (WNW) 2,368 1.6 -21.8°
Reaches altitude 10° 21:03:09 10° 284° (WNW) 1,503 0.1 -22.1°
Enters shadow 21:05:48 48° 258° (WSW) 557 -2.9 -22.5°
